TimeCDT,TemperatureF,Dew PointF,Humidity,Sea Level PressureIn,VisibilityMPH,Wind Direction,Wind SpeedMPH,Gust SpeedMPH,PrecipitationIn,Events,Conditions,WindDirDegrees,DateUTC
12:15 AM,75.2,62.6,65,30.07,10.0,Calm,Calm,-,N/A,,Clear,0,2013-09-12 05:15:00
12:35 AM,73.4,62.6,69,30.07,10.0,Calm,Calm,-,N/A,,Scattered Clouds,0,2013-09-12 05:35:00
12:55 AM,73.4,62.6,69,30.07,10.0,Calm,Calm,-,N/A,,Scattered Clouds,0,2013-09-12 05:55:00
1:15 AM,71.6,62.6,73,30.07,10.0,Calm,Calm,-,N/A,,Clear,0,2013-09-12 06:15:00
1:35 AM,71.6,62.6,73,30.07,10.0,Calm,Calm,-,N/A,,Clear,0,2013-09-12 06:35:00
1:55 AM,71.6,62.6,73,30.07,10.0,Calm,Calm,-,N/A,,Clear,0,2013-09-12 06:55:00
2:15 AM,71.6,62.6,73,30.07,10.0,Calm,Calm,-,N/A,,Clear,0,2013-09-12 07:15:00
2:35 AM,71.6,62.6,73,30.06,10.0,Calm,Calm,-,N/A,,Clear,0,2013-09-12 07:35:00
2:55 AM,69.8,62.6,78,30.06,10.0,Calm,Calm,-,N/A,,Clear,0,2013-09-12 07:55:00
3:15 AM,71.6,62.6,73,30.06,10.0,Calm,Calm,-,N/A,,Clear,0,2013-09-12 08:15:00
3:35 AM,71.6,62.6,73,30.06,10.0,Calm,Calm,-,N/A,,Clear,0,2013-09-12 08:35:00
3:55 AM,71.6,62.6,73,30.06,10.0,Calm,Calm,-,N/A,,Clear,0,2013-09-12 08:55:00
4:15 AM,71.6,62.6,73,30.06,10.0,Calm,Calm,-,N/A,,Clear,0,2013-09-12 09:15:00
4:35 AM,69.8,62.6,78,30.06,10.0,Calm,Calm,-,N/A,,Clear,0,2013-09-12 09:35:00
4:55 AM,68.0,62.6,83,30.06,10.0,Calm,Calm,-,N/A,,Clear,0,2013-09-12 09:55:00
5:15 AM,69.8,62.6,78,30.06,10.0,Calm,Calm,-,N/A,,Clear,0,2013-09-12 10:15:00
5:35 AM,69.8,62.6,78,30.06,10.0,Calm,Calm,-,N/A,,Clear,0,2013-09-12 10:35:00
5:55 AM,71.6,64.4,78,30.07,10.0,Calm,Calm,-,N/A,,Scattered Clouds,0,2013-09-12 10:55:00
6:15 AM,69.8,62.6,78,30.07,10.0,Calm,Calm,-,N/A,,Scattered Clouds,0,2013-09-12 11:15:00
6:35 AM,69.8,62.6,78,30.07,10.0,Calm,Calm,-,N/A,,Scattered Clouds,0,2013-09-12 11:35:00
6:55 AM,68.0,64.4,88,30.07,10.0,Calm,Calm,-,N/A,,Clear,0,2013-09-12 11:55:00
7:15 AM,68.0,64.4,88,30.07,10.0,Calm,Calm,-,N/A,,Clear,0,2013-09-12 12:15:00
7:35 AM,68.0,66.2,94,30.08,7.0,Calm,Calm,-,N/A,,Clear,0,2013-09-12 12:35:00
7:55 AM,69.8,66.2,88,30.09,7.0,Calm,Calm,-,N/A,,Clear,0,2013-09-12 12:55:00
8:15 AM,71.6,64.4,78,30.09,10.0,Calm,Calm,-,N/A,,Clear,0,2013-09-12 13:15:00
8:35 AM,73.4,64.4,73,30.10,10.0,ESE,4.6,-,N/A,,Clear,120,2013-09-12 13:35:00
8:55 AM,75.2,64.4,69,30.10,10.0,ESE,5.8,-,N/A,,Clear,110,2013-09-12 13:55:00
9:15 AM,77.0,64.4,65,30.10,10.0,SE,3.5,-,N/A,,Clear,130,2013-09-12 14:15:00
9:35 AM,78.8,64.4,61,30.11,10.0,Calm,Calm,-,N/A,,Clear,0,2013-09-12 14:35:00
9:55 AM,80.6,62.6,54,30.11,10.0,Calm,Calm,-,N/A,,Clear,0,2013-09-12 14:55:00
10:15 AM,84.2,60.8,45,30.11,10.0,WSW,4.6,-,N/A,,Clear,240,2013-09-12 15:15:00
10:35 AM,86.0,60.8,43,30.11,10.0,Calm,Calm,-,N/A,,Clear,0,2013-09-12 15:35:00
10:55 AM,87.8,59.0,38,30.11,10.0,WNW,5.8,-,N/A,,Clear,290,2013-09-12 15:55:00
11:15 AM,87.8,59.0,38,30.10,10.0,Calm,Calm,-,N/A,,Clear,0,2013-09-12 16:15:00
11:35 AM,89.6,57.2,33,30.10,10.0,Calm,Calm,-,N/A,,Clear,0,2013-09-12 16:35:00
11:55 AM,89.6,55.4,31,30.09,10.0,Calm,Calm,-,N/A,,Clear,0,2013-09-12 16:55:00
12:15 PM,91.4,55.4,29,30.09,10.0,North,4.6,-,N/A,,Clear,10,2013-09-12 17:15:00
12:35 PM,89.6,55.4,31,30.08,10.0,Calm,Calm,-,N/A,,Scattered Clouds,0,2013-09-12 17:35:00
12:55 PM,91.4,55.4,29,30.07,10.0,East,4.6,-,N/A,,Scattered Clouds,100,2013-09-12 17:55:00
1:15 PM,91.4,55.4,29,30.06,10.0,ENE,5.8,-,N/A,,Scattered Clouds,60,2013-09-12 18:15:00
1:35 PM,91.4,55.4,29,30.06,10.0,ENE,4.6,-,N/A,,Clear,60,2013-09-12 18:35:00
1:55 PM,93.2,55.4,28,30.05,10.0,NNW,4.6,-,N/A,,Clear,340,2013-09-12 18:55:00
2:15 PM,91.4,55.4,29,30.04,10.0,East,4.6,-,N/A,,Scattered Clouds,80,2013-09-12 19:15:00
2:35 PM,91.4,55.4,29,30.03,10.0,Calm,Calm,-,N/A,,Scattered Clouds,0,2013-09-12 19:35:00
2:55 PM,91.4,55.4,29,30.02,10.0,ENE,5.8,-,N/A,,Scattered Clouds,60,2013-09-12 19:55:00
3:15 PM,91.4,55.4,29,30.01,10.0,Calm,Calm,-,N/A,,Clear,0,2013-09-12 20:15:00
3:35 PM,91.4,55.4,29,30.00,10.0,East,3.5,-,N/A,,Clear,90,2013-09-12 20:35:00
3:55 PM,91.4,55.4,29,30.00,10.0,East,3.5,-,N/A,Rain,Light Rain,100,2013-09-12 20:55:00
4:15 PM,91.4,55.4,29,29.99,10.0,ESE,3.5,-,N/A,,Clear,110,2013-09-12 21:15:00
4:35 PM,95.0,55.4,26,29.98,10.0,East,6.9,-,N/A,,Clear,90,2013-09-12 21:35:00
4:55 PM,95.0,53.6,25,29.97,10.0,SE,4.6,-,N/A,,Clear,140,2013-09-12 21:55:00
5:15 PM,95.0,53.6,25,29.97,10.0,East,3.5,-,N/A,,Clear,80,2013-09-12 22:15:00
5:35 PM,95.0,53.6,25,29.97,10.0,ENE,6.9,-,N/A,,Clear,70,2013-09-12 22:35:00
5:55 PM,95.0,55.4,26,29.97,10.0,East,5.8,-,N/A,,Clear,100,2013-09-12 22:55:00
6:15 PM,93.2,53.6,26,29.97,10.0,East,3.5,-,N/A,,Clear,80,2013-09-12 23:15:00
6:35 PM,91.4,55.4,29,29.97,10.0,NNE,6.9,-,N/A,,Clear,30,2013-09-12 23:35:00
6:55 PM,87.8,59.0,38,29.97,10.0,North,8.1,-,N/A,,Clear,350,2013-09-12 23:55:00
7:15 PM,86.0,59.0,40,29.98,10.0,NE,3.5,-,N/A,,Clear,40,2013-09-13 00:15:00
7:35 PM,86.0,59.0,40,29.99,10.0,Calm,Calm,-,N/A,,Clear,0,2013-09-13 00:35:00
7:55 PM,84.2,59.0,42,29.99,10.0,North,3.5,-,N/A,,Scattered Clouds,10,2013-09-13 00:55:00
8:15 PM,84.2,59.0,42,30.00,10.0,North,5.8,-,N/A,,Mostly Cloudy,10,2013-09-13 01:15:00
8:35 PM,82.4,60.8,48,30.01,10.0,NE,3.5,-,N/A,,Mostly Cloudy,40,2013-09-13 01:35:00
8:55 PM,82.4,62.6,51,30.02,10.0,Calm,Calm,-,N/A,,Overcast,0,2013-09-13 01:55:00
9:15 PM,82.4,62.6,51,30.02,10.0,ENE,5.8,-,N/A,,Scattered Clouds,60,2013-09-13 02:15:00
9:35 PM,82.4,62.6,51,30.02,10.0,NE,3.5,-,N/A,,Mostly Cloudy,50,2013-09-13 02:35:00
9:55 PM,80.6,60.8,51,30.02,10.0,NE,5.8,-,N/A,,Scattered Clouds,50,2013-09-13 02:55:00
10:15 PM,80.6,62.6,54,30.02,10.0,NE,4.6,-,N/A,,Clear,50,2013-09-13 03:15:00
10:35 PM,80.6,62.6,54,30.02,10.0,Calm,Calm,-,N/A,,Clear,0,2013-09-13 03:35:00
10:55 PM,78.8,62.6,57,30.02,10.0,Calm,Calm,-,N/A,,Clear,0,2013-09-13 03:55:00
11:15 PM,78.8,62.6,57,30.02,10.0,Calm,Calm,-,N/A,,Clear,0,2013-09-13 04:15:00
11:35 PM,78.8,62.6,57,30.02,10.0,ENE,3.5,-,N/A,,Clear,70,2013-09-13 04:35:00
11:55 PM,78.8,62.6,57,30.02,10.0,ENE,3.5,-,N/A,,Clear,60,2013-09-13 04:55:00